Weather in Spokane

United States     47˚40′24″N   117˚23′47″W
temp.,
°C
wind,
m/s
gust,
m/s
humid.,
%
clouds,
%
prec.,
mm/h
press.,
hPa
HPBL,
m
27 november, fri
fri2701:00+2˚s278892 0.0 1030313
04:00+1˚sse148673 0.0 1029153
07:00sse128550 0.0 102990
10:00+2˚se137073 0.0 1028313
13:00+5˚s2655100 0.0 1026708
16:00+3˚se2465100 0.0 1025117
19:00+2˚sse118086 0.0 102422
22:00+1˚ese118292 0.0 102331
28 november, sat
sat2801:00+1˚sse257668 0.0 1023163
04:00+2˚ssw3106684 0.0 1023388
07:00+2˚sse1265100 0.0 1024142
10:00+4˚s245491 0.0 1026462
13:00+6˚sse014913 0.0 1027689
16:00+4˚n12597 0.0 102927
19:00+2˚nne12730 0.0 103142
22:00nne12810 0.0 103387
29 november, sun
sun2901:00−1˚ne12833 0.0 1033100
04:00−1˚nne22849 0.0 1033102
07:00−1˚ne12832 0.0 103392
10:00+1˚nne127330 0.0 1031220
13:00+4˚ne126440 0.0 1028335
16:00+3˚n127520 0.0 102626
19:00+1˚ne118533 0.0 102535
22:00ne119017 0.0 102322
30 november, mon
mon3001:00ne119021 0.0 102150
04:00ne118552 0.0 101869
07:00s31182100 0.6 1015670
10:00+4˚sw91873100 3.3 10161503
13:00+6˚wsw10165057 0.0 10171370
16:00+4˚wsw7145763 0.0 1020858
19:00+3˚w6126510 0.0 1025431
22:00+1˚wsw24675 0.0 1029121
1 december, tue
tue101:00sw126740 0.0 103254
04:00−1˚sw367320 0.0 1034204
07:00−1˚sw26800 0.0 1036235
10:00+1˚sse02710 0.0 1037439
13:00+3˚ne116318 0.0 1037702
16:00+2˚ne237036 0.0 1038401
19:00−1˚nne247918 0.0 1040166
22:00−2˚n23799 0.0 1041139